AMAZONAS 5 (42934 NORAD) Tracking and Keplerian Element Data

This shows tracking and keplerian element data for the satellite.

Feedback or suggestion? Click here.




ElementValue
Catalog42934
NameAMAZONAS 5
Epoch Orbit460
Epoch Day344.94817537
Epoch Year2018
RAAN322.6649
Inclination0.029
Eccentricity0.0003513
Argument of Perigee317.1147
Mean Anonmoly80.1919
Mean Motion1.00272072
Decay Rate-2.77E-06
L11 42934U 17053A 18344.94817537 -.00000277 00000-0 00000+0 0 9998
L22 42934 0.0290 322.6649 0003513 317.1147 80.1919 1.00272072 4602

Live tracking and technical data element details for AMAZONAS 5 (NORAD 42934). AMAZONAS 5 can be tracked NOW for your location showing map with azimuth and elevation plus other details from your city location.

Track the satellite on the map from your city or location and see movement details for azimuth, elevation, latitude, longitude, range, height, and movement on the map or in text.







IsCatalogInMostPopularTable: catalog: 42934, numindb: 154
Update: records affected: 1



GetName: 42934 AMAZONAS 5

Hit Count: updated at: Thu, 13 Dec 2018 05:13:06 GMT